Weather History for Wheeler AAF, HI

Change the Weather History Date:

Friday, March 2, 2012

  Actual Average Record
Temperature  
Mean Temperature 68 °F -  
Max Temperature 75 °F 74 °F 78 °F (2007)
Min Temperature 60 °F 61 °F 60 °F (1999)
Cooling Degree Days 2    
Growing Degree Days 18 (Base 50)    
Moisture  
Dew Point 63 °F    
Average Humidity 85    
Maximum Humidity 94    
Minimum Humidity 59    
Precipitation  
Precipitation 0.18 in - - ()
Sea Level Pressure  
Sea Level Pressure 30.05 in    
Wind  
Wind Speed 4 mph (North)    
Max Wind Speed 10 mph    
Max Gust Speed -    
Visibility 10 miles    
Events Rain    
Averages and records for this station are not official NWS values.
T = Trace of Precipitation, MM = Missing Value Source: NWS Daily Summary

Daily Weather History Graph

Daily Weather History Graph

Search for Another Location

Airport:

Trip Planner

Search our weather history database for the weather conditions in past years. The results will help you decide how hot, cold, wet, or windy it might be!

Date:

Astronomy

Mar. 02, 2012 Rise Set
Actual Time 6:51 AM HST 6:37 PM HST
Civil Twilight 6:29 AM HST 6:59 PM HST
Nautical Twilight 6:03 AM HST 7:25 PM HST
Astronomical Twilight 5:37 AM HST 7:51 PM HST
Moon 1:31 PM HST (3/2) 2:18 AM HST (3/2)
Length of Visible Light 12h 30m
Length of Day
11h 45m
Waxing Gibbous, 68% of the Moon is Illuminated
Mar 2
Waxing Gibbous
Mar 7
Full
Mar 14
Last Quarter
Mar 22
New
Mar 30
First Quarter

Hourly Weather History & Observations

Time (HST) Temp. Dew Point Humidity Pressure Visibility Wind Dir Wind Speed Gust Speed Precip Events Conditions
12:55 AM 64.9 °F 59.9 °F 84% 30.07 in 10.0 mi South 4.6 mph - N/A   Partly Cloudy
1:55 AM 65.5 °F 60.3 °F 83% 30.06 in 10.0 mi Calm Calm - N/A   Clear
2:55 AM 63.7 °F 59.9 °F 87% 30.04 in 10.0 mi Calm Calm - N/A   Clear
3:55 AM 63.9 °F 59.7 °F 86% 30.03 in 10.0 mi Calm Calm - N/A   Clear
4:55 AM 61.3 °F 58.5 °F 90% 30.04 in 10.0 mi Calm Calm - N/A   Clear
5:55 AM 60.6 °F 58.3 °F 92% 30.04 in 10.0 mi WNW 4.6 mph - N/A   Clear
6:55 AM 60.8 °F 58.3 °F 91% 30.06 in 10.0 mi WNW 3.5 mph - N/A   Clear
7:55 AM 64.4 °F 60.3 °F 86% 30.08 in 10.0 mi Calm Calm - N/A   Clear
8:55 AM 70.2 °F 62.6 °F 77% 30.09 in 10.0 mi SSE 3.5 mph - N/A   Partly Cloudy
9:51 AM 71.6 °F 62.6 °F 73% 30.09 in 10.0 mi East 4.6 mph - N/A   Mostly Cloudy
9:55 AM 71.4 °F 63.3 °F 76% 30.09 in 10.0 mi East 4.6 mph - N/A   Mostly Cloudy
10:09 AM 71.6 °F 62.6 °F 73% 30.09 in 10.0 mi East 8.1 mph - N/A   Mostly Cloudy
10:55 AM 74.3 °F 64.0 °F 70% 30.09 in 10.0 mi East 4.6 mph - N/A   Scattered Clouds
11:55 AM 75.6 °F 60.1 °F 59% 30.06 in 10.0 mi Variable 5.8 mph - N/A   Mostly Cloudy
12:46 PM 71.6 °F 62.6 °F 73% 30.06 in 10.0 mi NE 10.4 mph - N/A   Overcast
12:52 PM 69.8 °F 64.4 °F 83% 30.06 in 10.0 mi NNE 10.4 mph - N/A   Light Drizzle
12:55 PM 70.3 °F 64.0 °F 80% 30.06 in 10.0 mi North 9.2 mph - 0.00 in Rain Light Rain
1:39 PM 68.0 °F 64.4 °F 88% 30.06 in 10.0 mi North 6.9 mph - N/A   Overcast
1:44 PM 68.0 °F 64.4 °F 88% 30.05 in 10.0 mi NNE 4.6 mph - N/A   Drizzle
1:51 PM 68.0 °F 64.4 °F 88% 30.05 in 4.0 mi NNE 5.8 mph - N/A Rain Rain
1:55 PM 67.5 °F 64.0 °F 89% 30.05 in 4.0 mi North 5.8 mph - 0.04 in Rain Light Rain
2:24 PM 68.0 °F 64.4 °F 88% 30.04 in 10.0 mi NE 5.8 mph - N/A   Mostly Cloudy
2:30 PM 68.0 °F 64.4 °F 88% 30.04 in 10.0 mi NNE 4.6 mph - N/A   Mostly Cloudy
2:42 PM 68.0 °F 64.4 °F 88% 30.03 in 10.0 mi Calm Calm - N/A   Mostly Cloudy
2:55 PM 69.4 °F 65.5 °F 87% 30.02 in 10.0 mi West 6.9 mph - 0.01 in   Overcast
3:16 PM 69.8 °F 64.4 °F 83% 30.02 in 10.0 mi West 5.8 mph - N/A   Overcast
3:17 PM 69.8 °F 64.4 °F 83% 30.02 in 10.0 mi West 5.8 mph - N/A   Overcast
3:24 PM 69.8 °F 64.4 °F 83% 30.02 in 10.0 mi NNW 5.8 mph - N/A   Overcast
3:29 PM 69.8 °F 64.4 °F 83% 30.02 in 10.0 mi Variable 5.8 mph - N/A   Mostly Cloudy
3:32 PM 69.8 °F 64.4 °F 83% 30.02 in 10.0 mi North 5.8 mph - N/A   Overcast
3:36 PM 69.8 °F 64.4 °F 83% 30.02 in 10.0 mi North 3.5 mph - N/A   Overcast
3:37 PM 69.8 °F 64.4 °F 83% 30.02 in 10.0 mi North 3.5 mph - N/A   Overcast
3:41 PM 69.8 °F 64.4 °F 83% 30.02 in 10.0 mi NNW 5.8 mph - N/A   Light Drizzle
3:42 PM 69.8 °F 64.4 °F 83% 30.02 in 10.0 mi NNW 5.8 mph - N/A   Light Drizzle
3:47 PM 69.8 °F 64.4 °F 83% 30.02 in 10.0 mi NNW 4.6 mph - N/A   Light Drizzle
3:51 PM 69.8 °F 64.4 °F 83% 30.02 in 10.0 mi North 5.8 mph - N/A   Mostly Cloudy
3:55 PM 69.4 °F 64.0 °F 83% 30.01 in 10.0 mi NNW 5.8 mph - 0.00 in   Mostly Cloudy
4:00 PM 69.8 °F 64.4 °F 83% 30.01 in 10.0 mi NW 5.8 mph - N/A   Mostly Cloudy
4:55 PM 69.4 °F 64.0 °F 83% 30.03 in 10.0 mi NNW 6.9 mph - N/A   Overcast
5:24 PM 69.8 °F 62.6 °F 78% 30.03 in 10.0 mi North 6.9 mph - N/A   Light Drizzle
5:37 PM 68.0 °F 62.6 °F 83% 30.03 in 10.0 mi North 4.6 mph - N/A   Overcast
5:55 PM 68.7 °F 62.8 °F 81% 30.04 in 10.0 mi ENE 6.9 mph - 0.00 in   Overcast
6:55 PM 67.1 °F 62.8 °F 86% 30.05 in 10.0 mi Calm Calm - N/A   Overcast
7:06 PM 66.2 °F 62.6 °F 88% 30.05 in 10.0 mi NE 5.8 mph - N/A Rain Light Rain
7:55 PM 65.3 °F 63.3 °F 93% 30.07 in 10.0 mi NW 3.5 mph - 0.11 in Rain Light Rain
8:30 PM 64.4 °F 62.6 °F 94% 30.07 in 10.0 mi NNW 4.6 mph - N/A   Scattered Clouds
8:32 PM 64.4 °F 62.6 °F 94% 30.07 in 10.0 mi North 3.5 mph - N/A   Light Drizzle
8:49 PM 66.2 °F 62.6 °F 88% 30.08 in 10.0 mi NNE 5.8 mph - N/A   Mostly Cloudy
8:52 PM 66.2 °F 62.6 °F 88% 30.07 in 10.0 mi NNE 5.8 mph - N/A   Light Drizzle
8:55 PM 65.7 °F 62.6 °F 90% 30.08 in 10.0 mi North 4.6 mph - 0.01 in   Drizzle
9:25 PM 64.4 °F 62.6 °F 94% 30.08 in 10.0 mi Calm Calm - N/A   Mostly Cloudy
9:37 PM 64.4 °F 62.6 °F 94% 30.08 in 10.0 mi North 4.6 mph - N/A   Light Drizzle
9:55 PM 64.8 °F 61.9 °F 90% 30.08 in 9.0 mi Calm Calm - 0.01 in Rain Light Rain
10:05 PM 64.4 °F 62.6 °F 94% 30.08 in 10.0 mi WNW 3.5 mph - N/A   Mostly Cloudy
10:55 PM 64.9 °F 62.1 °F 90% 30.07 in 10.0 mi North 4.6 mph - 0.00 in   Scattered Clouds
11:55 PM 63.3 °F 61.2 °F 93% 30.06 in 10.0 mi WNW 3.5 mph - N/A   Clear